STARLINK-38374, 100509

Orbit data source: Space-Track

STARLINK-38374, 100509 is a payload satellite owned by SpaceX/Seattle (US) in LEO that was launched on Wed, 26 Aug 2026 UTC launched from the Air Force Western Test Range (AFWTR). Payload-class satellites include a variety of spacecraft equipped with specific instruments for various scientific and technological missions. These include communications satellites like Starlink; space stations such as the ISS; scientific satellites like the Hubble; Earth observation satellites from companies like Planet Labs, Umbra, and HawkEye 360; GPS; miniature CubeSats for education and research; and military/defense satellites.

Loading next visibility...
Identifier
100509, 2026-197H
Orbit
LEO
Country
Flag of USUS
Related business
Manufacturer
SpaceX/Seattle
Mission
Operational spacecraft
Bus & Motor
STARLINK V2MO, Unknown motor
Mass
575 kg wet, ~530 kg dry
Launch date (UTC)
2026-08-26 (2 weeks ago)
Launch vehicle
Unknown
Launch site
Air Force Western Test Range (AFWTR)
Object type
Payload
Rocket body
Debris
Shape & HBR
BOX + PAN, 17.7 m
Radar Cross Section
RCS unknown

Expand to show TLE details & history
Last TLE update: 5 hours ago

TLE from 5 hours ago
0 STARLINK-38374
1 A0509U 26197H   26251.61884515  .00187459  00000-0  10986-2 0  9993
2 A0509  69.9994 155.5161 0004095 279.3288  80.7449 15.77608693  2111
Epoch: 2026-09-08T14:51Z
TLE epoch observation values (Epoch: 2026-09-08T14:51:08.220Z)
Latitude
-0°
Longitude
-54.95082°
Altitude
339.285 km
Speed
7.706 km/s
True Right ascension
10h 22m 03s
True Declination
0° 00' 00"
Sunlit
Object was in daylight at epoch
Visualization orbit readout
Latitude
Unknown
Longitude
Unknown
Altitude
Unknown
Speed
Unknown
Apparent Right ascension
Unknown
Apparent Declination
Unknown
Sunlit
N/A
Visualization observer readout
Local Sidereal Time
11:39:28
Azimuth
Unknown
Elevation
Unknown
Doppler factor
Unknown
Orbital elements
Apogee altitude
337.843 km
Perigee altitude
332.345 km
Semi-major axis
6,713.231 km
Eccentricity
0.00041
Inclination
69.9994°
RAAN
155.5161°
Arg. of periapsis
279.3288°
True anomaly
80.79122°
Mean anomaly
80.7449°
Eccentric anomaly
80.76806°
Mean motion
3.9459 °/min
Orbital period
91.23 mins
BSTAR
0.0010986
Loading maneuver chart data...
Computing Atmospheric mass density...
Loading historical data...
Loading historical data...
Loading historical data...
Loading historical data...
Loading historical data...
Loading historical data...
Loading historical data...

Documentation

Showing up to 5 results
|